DW6494 Weather Reports


Display with metric or nautical units.
time (UTC)temp
F
wind
direction
speed
MPH
gust
MPH
rain 1hr
in
rain 24hr
in
rain mn
in
humidity
%
barometer
mb
20260503002029 71 34 2.0 5.0 0.00 0.00 0.00 11 1015.0
20260503001530 71 89 5.0 12.0 0.00 0.00 0.00 10 1015.0
20260503001029 71 146 6.0 11.0 0.00 0.00 0.00 11 1015.0
20260503000529 71 216 2.0 7.0 0.00 0.00 0.00 12 1015.0
20260503000029 71 88 4.0 7.0 0.00 0.00 0.00 11 1015.0
20260502235529 71 150 6.0 9.0 0.00 0.00 0.00 10 1015.0
20260502235029 71 111 3.0 7.0 0.00 0.00 0.00 11 1015.0
20260502234529 71 151 9.0 12.0 0.00 0.00 0.00 10 1015.0
20260502234029 71 157 4.0 8.0 0.00 0.00 0.00 12 1015.0
20260502233529 71 164 4.0 9.0 0.00 0.00 0.00 11 1015.0
20260502233029 71 149 8.0 12.0 0.00 0.00 0.00 10 1015.0
20260502232529 71 122 4.0 10.0 0.00 0.00 0.00 13 1015.0
20260502232029 71 8 3.0 6.0 0.00 0.00 0.00 11 1015.0
20260502231529 71 114 7.0 12.0 0.00 0.00 0.00 12 1015.0
20260502231030 71 64 4.0 8.0 0.00 0.00 0.00 11 1015.0
20260502230529 71 109 5.0 9.0 0.00 0.00 0.00 12 1015.0
20260502230029 71 156 4.0 12.0 0.00 0.00 0.00 11 1015.0
20260502225529 70 45 4.0 8.0 0.00 0.00 0.00 12 1015.0
20260502225030 70 300 1.0 4.0 0.00 0.00 0.00 12 1016.0
20260502224530 71 84 6.0 11.0 0.00 0.00 0.00 14 1016.0
20260502224030 70 53 6.0 11.0 0.00 0.00 0.00 12 1016.0
20260502223530 70 32 3.0 7.0 0.00 0.00 0.00 14 1016.0
20260502223030 70 47 8.0 14.0 0.00 0.00 0.00 11 1016.0
20260502222529 70 103 3.0 6.0 0.00 0.00 0.00 12 1016.0
20260502222029 70 109 5.0 12.0 0.00 0.00 0.00 14 1016.0
20260502221529 70 66 7.0 11.0 0.00 0.00 0.00 14 1016.0
20260502221029 70 86 11.0 17.0 0.00 0.00 0.00 13 1016.0
20260502220529 69 4 4.0 6.0 0.00 0.00 0.00 14 1016.0
20260502220029 69 130 3.0 8.0 0.00 0.00 0.00 15 1016.0
20260502215529 70 149 7.0 13.0 0.00 0.00 0.00 13 1017.0
20260502215030 70 111 7.0 11.0 0.00 0.00 0.00 15 1017.0
20260502214529 70 352 4.0 8.0 0.00 0.00 0.00 13 1017.0
20260502214029 70 4 2.0 6.0 0.00 0.00 0.00 13 1017.0
20260502213529 71 115 7.0 13.0 0.00 0.00 0.00 14 1017.0
20260502213029 71 329 7.0 10.0 0.00 0.00 0.00 12 1017.0
20260502212530 71 231 2.0 5.0 0.00 0.00 0.00 17 1017.0
20260502212030 70 154 6.0 9.0 0.00 0.00 0.00 15 1017.0
20260502211529 69 281 1.0 4.0 0.00 0.00 0.00 16 1017.0
20260502211029 69 153 10.0 16.0 0.00 0.00 0.00 15 1017.0
20260502210532 69 149 9.0 16.0 0.00 0.00 0.00 16 1017.0
20260502210030 69 131 7.0 12.0 0.00 0.00 0.00 16 1017.0
20260502205530 69 164 4.0 9.0 0.00 0.00 0.00 17 1017.0
20260502205029 70 20 2.0 6.0 0.00 0.00 0.00 15 1018.0
20260502204529 70 111 5.0 11.0 0.00 0.00 0.00 15 1018.0
20260502204030 69 32 2.0 4.0 0.00 0.00 0.00 15 1018.0
20260502203529 69 160 9.0 14.0 0.00 0.00 0.00 15 1018.0
20260502203029 69 147 6.0 11.0 0.00 0.00 0.00 17 1018.0
20260502202529 68 154 4.0 9.0 0.00 0.00 0.00 15 1018.0
20260502202029 68 93 4.0 9.0 0.00 0.00 0.00 16 1018.0
20260502201529 68 50 1.0 5.0 0.00 0.00 0.00 15 1018.0
20260502201030 68 152 4.0 7.0 0.00 0.00 0.00 15 1018.0
20260502200529 68 138 12.0 17.0 0.00 0.00 0.00 14 1018.0
20260502200030 69 36 7.0 12.0 0.00 0.00 0.00 14 1018.0
20260502195530 69 129 4.0 10.0 0.00 0.00 0.00 14 1018.0
20260502195029 69 281 1.0 4.0 0.00 0.00 0.00 16 1018.0
20260502194530 68 109 3.0 8.0 0.00 0.00 0.00 17 1018.0
20260502194029 68 44 0.0 1.0 0.00 0.00 0.00 16 1018.0
20260502193530 68 193 1.0 6.0 0.00 0.00 0.00 14 1018.0
20260502193030 68 140 7.0 10.0 0.00 0.00 0.00 15 1018.0
20260502192529 68 347 4.0 6.0 0.00 0.00 0.00 16 1018.0
20260502192029 67 223 1.0 7.0 0.00 0.00 0.00 17 1019.0
20260502191532 67 136 6.0 12.0 0.00 0.00 0.00 18 1019.0
20260502191029 67 217 3.0 5.0 0.00 0.00 0.00 19 1019.0
20260502190529 66 127 4.0 6.0 0.00 0.00 0.00 17 1019.0
20260502190029 66 190 5.0 12.0 0.00 0.00 0.00 19 1019.0
20260502185529 66 176 9.0 15.0 0.00 0.00 0.00 18 1019.0
20260502185030 66 168 7.0 13.0 0.00 0.00 0.00 20 1019.0
20260502184530 66 341 4.0 7.0 0.00 0.00 0.00 22 1019.0
20260502184031 66 325 4.0 7.0 0.00 0.00 0.00 21 1019.0
20260502183529 66 344 5.0 10.0 0.00 0.00 0.00 21 1019.0
20260502183029 66 330 7.0 9.0 0.00 0.00 0.00 23 1019.0
20260502182529 66 22 4.0 8.0 0.00 0.00 0.00 24 1019.0
20260502182030 66 302 2.0 7.0 0.00 0.00 0.00 29 1019.0
20260502181531 65 91 4.0 7.0 0.00 0.00 0.00 27 1020.0
20260502181029 65 57 4.0 9.0 0.00 0.00 0.00 31 1020.0
20260502180530 65 336 3.0 6.0 0.00 0.00 0.00 32 1020.0
20260502164029 60 146 5.0 9.0 0.00 0.00 0.00 30 1020.0
20260502163530 60 68 4.0 10.0 0.00 0.00 0.00 35 1020.0
20260502163030 60 125 6.0 9.0 0.00 0.00 0.00 33 1020.0
20260502162529 60 123 1.0 3.0 0.00 0.00 0.00 37 1020.0
20260502162030 60 83 2.0 6.0 0.00 0.00 0.00 36 1020.0
20260502161529 60 11 0.0 2.0 0.00 0.00 0.00 35 1020.0
20260502161030 59 90 2.0 11.0 0.00 0.00 0.00 35 1020.0
20260502160529 59 0 0.0 0.0 0.00 0.00 0.00 37 1020.0
20260502152029 57 87 0.0 0.0 0.00 0.00 0.00 40 1020.0
20260502151529 57 346 2.0 2.0 0.00 0.00 0.00 40 1020.0
20260502151029 56 305 0.0 0.0 0.00 0.00 0.00 43 1020.0
20260502150531 56 0 0.0 0.0 0.00 0.00 0.00 42 1020.0
20260502130530 44 97 4.0 4.0 0.00 0.00 0.00 51 1020.0
20260502123530 42 68 4.0 4.0 0.00 0.00 0.00 55 1019.0
20260502123029 42 55 0.0 0.0 0.00 0.00 0.00 55 1019.0
20260502122529 42 77 3.0 4.0 0.00 0.00 0.00 56 1019.0
20260502122030 42 0 0.0 0.0 0.00 0.00 0.00 54 1019.0
20260502121530 43 0 0.0 0.0 0.00 0.00 0.00 56 1019.0
20260502121029 43 0 0.0 0.0 0.00 0.00 0.00 54 1019.0
20260502120529 44 81 0.0 1.0 0.00 0.00 0.00 51 1019.0
20260502115530 44 78 4.0 5.0 0.00 0.00 0.00 50 1019.0
20260502115029 44 75 5.0 6.0 0.00 0.00 0.00 48 1019.0
20260502114529 44 89 5.0 6.0 0.00 0.00 0.00 50 1019.0
20260502114029 44 85 5.0 6.0 0.00 0.00 0.00 53 1019.0
20260502113529 44 77 4.0 4.0 0.00 0.00 0.00 54 1019.0
20260502113029 43 76 4.0 4.0 0.00 0.00 0.00 54 1019.0
20260502112530 43 79 0.0 0.0 0.00 0.00 0.00 55 1019.0
20260502112030 43 81 3.0 5.0 0.00 0.00 0.00 55 1019.0
20260502111530 43 0 0.0 0.0 0.00 0.00 0.00 55 1019.0
20260502111030 44 0 0.0 0.0 0.00 0.00 0.00 54 1020.0
20260502110531 44 0 0.0 0.0 0.00 0.00 0.00 52 1020.0
20260502110029 45 0 0.0 0.0 0.00 0.00 0.00 51 1020.0
20260502105530 45 0 0.0 0.0 0.00 0.00 0.00 50 1020.0
20260502104630 45 90 3.0 4.0 0.00 0.00 0.00 49 1019.0
20260502104030 45 92 6.0 6.0 0.00 0.00 0.00 50 1019.0
20260502103530 45 83 0.0 0.0 0.00 0.00 0.00 54 1019.0
20260502103029 46 87 5.0 5.0 0.00 0.00 0.00 54 1019.0
20260502102529 46 88 4.0 4.0 0.00 0.00 0.00 54 1019.0
20260502102029 47 78 6.0 6.0 0.00 0.00 0.00 50 1019.0
20260502101529 47 87 8.0 9.0 0.00 0.00 0.00 43 1019.0
20260502101029 47 97 5.0 8.0 0.00 0.00 0.00 42 1019.0
20260502100529 47 86 5.0 5.0 0.00 0.00 0.00 44 1019.0
20260502091530 48 68 5.0 6.0 0.00 0.00 0.00 45 1019.0
20260502091029 48 67 6.0 8.0 0.00 0.00 0.00 44 1019.0
20260502090529 47 59 6.0 7.0 0.00 0.00 0.00 44 1019.0
20260502071530 51 71 5.0 8.0 0.00 0.00 0.00 37 1019.0
20260502071029 50 80 6.0 8.0 0.00 0.00 0.00 38 1019.0
20260502070529 49 79 6.0 7.0 0.00 0.00 0.00 42 1019.0
20260502070032 49 71 4.0 5.0 0.00 0.00 0.00 48 1019.0
20260502065529 49 60 5.0 6.0 0.00 0.00 0.00 47 1019.0
20260502065030 49 69 4.0 4.0 0.00 0.00 0.00 47 1019.0
20260502064530 49 86 4.0 4.0 0.00 0.00 0.00 48 1019.0
20260502064029 50 24 1.0 2.0 0.00 0.00 0.00 47 1019.0
20260502063530 51 49 2.0 3.0 0.00 0.00 0.00 45 1019.0
20260502063029 51 69 5.0 7.0 0.00 0.00 0.00 41 1019.0
20260502062529 51 86 5.0 6.0 0.00 0.00 0.00 40 1019.0
20260502062029 51 118 4.0 5.0 0.00 0.00 0.00 40 1019.0
20260502061030 53 52 4.0 5.0 0.00 0.00 0.00 38 1019.0
20260502060529 53 97 5.0 7.0 0.00 0.00 0.00 36 1019.0
20260502060029 54 114 7.0 8.0 0.00 0.00 0.00 35 1019.0
20260502055529 54 334 3.0 5.0 0.00 0.00 0.00 36 1019.0
20260502055029 55 326 1.0 3.0 0.00 0.00 0.00 34 1019.0
20260502054529 55 38 4.0 5.0 0.00 0.00 0.00 32 1019.0
20260502054029 55 37 7.0 10.0 0.00 0.00 0.00 31 1019.0
20260502053530 55 62 8.0 9.0 0.00 0.00 0.00 31 1018.0
20260502053029 55 102 6.0 9.0 0.00 0.00 0.00 33 1018.0
20260502052530 56 121 6.0 8.0 0.00 0.00 0.00 32 1018.0
20260502052030 57 147 2.0 5.0 0.00 0.00 0.00 33 1018.0
20260502051530 57 0 0.0 0.0 0.00 0.00 0.00 32 1018.0
20260502051029 57 327 3.0 6.0 0.00 0.00 0.00 30 1018.0
20260502050531 58 326 11.0 17.0 0.00 0.00 0.00 29 1018.0
20260502050029 58 339 9.0 17.0 0.00 0.00 0.00 29 1018.0
20260502045529 57 350 12.0 18.0 0.00 0.00 0.00 28 1018.0
20260502045029 58 343 10.0 14.0 0.00 0.00 0.00 27 1018.0
20260502044530 58 320 11.0 16.0 0.00 0.00 0.00 28 1018.0
20260502044030 58 342 10.0 13.0 0.00 0.00 0.00 27 1018.0
20260502043530 58 325 9.0 17.0 0.00 0.00 0.00 28 1018.0
20260502043030 58 314 13.0 17.0 0.00 0.00 0.00 28 1018.0
20260502042529 58 329 12.0 18.0 0.00 0.00 0.00 27 1018.0
20260502042030 58 337 12.0 19.0 0.00 0.00 0.00 28 1018.0
20260502041529 58 342 15.0 21.0 0.00 0.00 0.00 27 1018.0
20260502041030 58 342 17.0 26.0 0.00 0.00 0.00 26 1018.0
20260502040529 58 333 10.0 21.0 0.00 0.00 0.00 26 1018.0
20260502040030 58 354 8.0 13.0 0.00 0.00 0.00 27 1018.0
20260502035531 58 327 9.0 16.0 0.00 0.00 0.00 27 1018.0
20260502035030 58 321 11.0 16.0 0.00 0.00 0.00 27 1018.0
20260502034529 58 327 10.0 17.0 0.00 0.00 0.00 28 1017.0
20260502034035 58 343 13.0 21.0 0.00 0.00 0.00 28 1017.0
20260502033530 58 324 9.0 17.0 0.00 0.00 0.00 27 1017.0
20260502033029 58 330 10.0 21.0 0.00 0.00 0.00 27 1017.0
20260502032529 58 321 10.0 21.0 0.00 0.00 0.00 28 1017.0
20260502032029 58 346 11.0 17.0 0.00 0.00 0.00 28 1017.0
20260502031530 58 335 12.0 20.0 0.00 0.00 0.00 28 1017.0
20260502031030 58 342 12.0 28.0 0.00 0.00 0.00 29 1017.0
20260502030530 58 334 12.0 17.0 0.00 0.00 0.00 29 1017.0
20260502030030 58 338 13.0 21.0 0.00 0.00 0.00 28 1017.0
20260502025530 58 342 13.0 21.0 0.00 0.00 0.00 28 1017.0
20260502025030 59 323 11.0 17.0 0.00 0.00 0.00 29 1017.0
20260502024530 59 353 11.0 20.0 0.00 0.00 0.00 28 1017.0
20260502024029 59 346 12.0 20.0 0.00 0.00 0.00 29 1017.0
20260502023530 59 350 11.0 18.0 0.00 0.00 0.00 29 1017.0
20260502023030 59 354 14.0 21.0 0.00 0.00 0.00 29 1017.0
20260502022529 59 353 14.0 23.0 0.00 0.00 0.00 29 1017.0
20260502022029 60 353 12.0 25.0 0.00 0.00 0.00 29 1017.0
20260502021530 60 0 7.0 16.0 0.00 0.00 0.00 29 1017.0
20260502021029 60 351 10.0 16.0 0.00 0.00 0.00 28 1017.0
20260502020530 61 317 8.0 13.0 0.00 0.00 0.00 29 1017.0
20260502020029 61 342 8.0 17.0 0.00 0.00 0.00 28 1016.0
20260502015530 61 319 10.0 12.0 0.00 0.00 0.00 28 1017.0
20260502015029 62 303 11.0 15.0 0.00 0.00 0.00 28 1017.0
20260502014530 62 299 7.0 13.0 0.00 0.00 0.00 28 1017.0
20260502014029 62 337 8.0 20.0 0.00 0.00 0.00 28 1016.0
20260502013529 62 294 11.0 19.0 0.00 0.00 0.00 27 1016.0
20260502013030 62 286 14.0 28.0 0.00 0.00 0.00 27 1016.0
20260502012529 63 297 13.0 20.0 0.00 0.00 0.00 27 1016.0
20260502012030 63 296 13.0 18.0 0.00 0.00 0.00 27 1016.0
20260502011529 63 305 11.0 23.0 0.00 0.00 0.00 27 1016.0
20260502011029 63 294 12.0 19.0 0.00 0.00 0.00 28 1016.0
20260502010530 63 295 12.0 16.0 0.00 0.00 0.00 27 1016.0
20260502010030 63 295 14.0 19.0 0.00 0.00 0.00 27 1016.0
20260502005530 63 296 13.0 26.0 0.00 0.00 0.00 26 1016.0
20260502005030 64 305 11.0 16.0 0.00 0.00 0.00 26 1016.0
20260502004529 64 287 13.0 21.0 0.00 0.00 0.00 26 1016.0
20260502004029 64 286 12.0 23.0 0.00 0.00 0.00 26 1016.0
20260502003529 64 289 16.0 30.0 0.00 0.00 0.00 26 1016.0
20260502003030 64 301 12.0 17.0 0.00 0.00 0.00 26 1016.0
20260502002530 64 282 17.0 24.0 0.00 0.00 0.00 26 1016.0